Regional Weather Roundup
Issued by NWS San Angelo, TX

Home | Current Version | Previous Version | Text Only | Print | Product List | Glossary On
Versions: 1 2 3 4 5 6 7 8 9 10 11 12 13 14 15 16 17 18 19 20 21 22 23 24 25 26 27 28 29 30 31 32 33 34 35 36 37 38 39 40 41 42 43 44 45 46 47 48 49 50
000
ASUS44 KSJT 051010
RWRSJT
WEST CENTRAL TEXAS REGIONAL WEATHER ROUNDUP
NATIONAL WEATHER SERVICE SAN ANGELO TX
400 AM CST THU MAR 05 2015

NOTE: "FAIR" INDICATES FEW OR NO CLOUDS BELOW 12,000 FEET WITH NO
SIGNIFICANT WEATHER AND/OR OBSTRUCTIONS TO VISIBILITY.

TXZ049-054-064>066-071>073-076>078-098-099-113-114-127-128-139-140-
154-155-168>170-051100
...LOCATIONS ACROSS WEST CENTRAL TEXAS...

CITY           SKY/WX    TMP DP  RH WIND       PRES   REMARKS
SAN ANGELO     CLOUDY    27  21  78 N15       30.45R WCI  15
ABILENE        CLEAR     21  18  88 N13       30.46R WCI   9
DYESS AFB      CLEAR     22  17  82 N7        30.46R WCI  14
JUNCTION       CLOUDY    28  26  92 N15G21    30.38R WCI  16
SWEETWATER     CLEAR     22  20  91 N8        30.48R WCI  12
BROWNWOOD      CLOUDY    27  23  86 N20G33    30.42R WCI  13
COLEMAN        CLOUDY    26  23  90 N21       30.42S WCI  11
SONORA         CLOUDY    27  23  86 CALM      30.43F
OZONA          CLOUDY    27  23  86 N14       30.44S WCI  15
BRADY          CLOUDY    25  25 100 N15       30.37R WCI  12
$$

TEXAS PANHANDLE/OKLAHOMA PANHANDLE

CITY           SKY/WX    TMP DP  RH WIND       PRES   REMARKS
AMARILLO       CLEAR     15  12  88 W8        30.42R WCI   4
BORGER         CLEAR     20  15  81 W7        30.43S WCI  11
CANADIAN       CLEAR     14  11  88 SW3       30.45S
DALHART        CLEAR     13   8  81 W12       30.40S WCI  -1
DUMAS          SUNNY     15  13  90 W10       30.40S WCI   2
GUYMON         NOT AVBL
HEREFORD       SUNNY     13  12  92 NW9       30.42F WCI   1
PAMPA          SUNNY     13  10  90 W7        30.42R WCI   3
PERRYTON         N/A     17  13  84 W3        30.41S
$$

SOUTHERN PANHANDLE/SOUTH PLAINS/ROLLING PLAINS

CITY           SKY/WX    TMP DP  RH WIND       PRES   REMARKS
LUBBOCK        CLOUDY    23  18  81 N8        30.43S WCI  14
SNYDER         CLOUDY    23  19  84 N14       30.47R WCI  10
CHILDRESS      PTCLDY    17  14  88 NW5       30.50R WCI  10
SEMINOLE       CLOUDY    25  16  69 N8        30.46R WCI  16
$$

PERMIAN BASIN

CITY           SKY/WX    TMP DP  RH WIND       PRES   REMARKS
MIDLAND        CLOUDY    25  19  78 N16       30.45S WCI  12
ODESSA         CLOUDY    24  16  71 NE14      30.46R WCI  12
WINK           CLOUDY    28  20  71 N8        30.47R WCI  20
$$

FAR WEST/SOUTHWEST MOUNTAINS/TRANS PECOS

CITY           SKY/WX    TMP DP  RH WIND       PRES   REMARKS
ALPINE         CLOUDY    23  21  95 NE14      30.43R WCI  10
DRYDEN           N/A     31  24  75 N16       30.42R WCI  20
EL PASO        MOCLDY    34  24  67 E18       30.31R WCI  23
FORT STOCKTON  CLOUDY    24  23  96 N12       30.47R WCI  13
GUADALUPE PASS NOT AVBL
MARFA          CLOUDY    23  19  86 N25       30.31S WCI   7
PECOS          CLOUDY    28  26  92 N7        30.51R WCI  20
$$

DALLAS/FORT WORTH METROPLEX

CITY           SKY/WX    TMP DP  RH WIND       PRES   REMARKS
DFW AIRPORT    MOCLDY    25  21  85 N23G31    30.42R WCI  10
FTW MEACHAM    MIX PCPN  27  20  75 N15G25    30.44R WCI  15
DAL-EXECUTIVE  CLOUDY    26  23  88 N17G25    30.40F WCI  13
GRAND PRAIRIE  MOCLDY    27  25  94 N15G21    30.41F WCI  15
ADDISON        MOCLDY    26  26  98 N15G25    30.43F WCI  14
MESQUITE       CLOUDY    27  24  89 N21G26    30.39F WCI  13
LANCASTER      MIX PCPN  27  22  81 N18G25    30.41F WCI  14
$$

NORTH CENTRAL TEXAS

CITY           SKY/WX    TMP DP  RH WIND       PRES   REMARKS
SHRMAN/DENISON PTSUNNY   26  22  85 N10       30.47R WCI  16
GAINESVILLE    PTCLDY    24  18  80 N10       30.47S WCI  13
BRIDGEPORT     PTSUNNY   25  22  87 N9        30.47F WCI  16
DENTON         MOCLDY    25  19  78 N12       30.45S WCI  14
WAXAHACHIE     CLOUDY    26  26  99 N20       30.40R WCI  13
GRANBURY       PTSUNNY   28  24  83 NW14      30.46R WCI  17
$$

WESTERN NORTH TEXAS

CITY           SKY/WX    TMP DP  RH WIND       PRES   REMARKS
WICHITA FALLS  CLEAR     19  16  88 NW8       30.50R WCI   9
VERNON         SUNNY     17  10  73 NW9       30.52S WCI   6
BRECKENRIDGE   MOSUNNY   26  22  85 N9        30.48R WCI  16
COMANCHE       CLOUDY    26  26 100 N20G26    30.41R WCI  12
$$

CENTRAL AND SOUTH CENTRAL TEXAS

CITY           SKY/WX    TMP DP  RH WIND       PRES   REMARKS
AUSTIN/BERGSTM LGT RAIN  33  29  85 N22G30    30.30R WCI  21
WACO           CLOUDY    28  25  88 N21G29    30.37R WCI  15
HILLSBORO      CLOUDY    28  26  91 N23       30.37R WCI  14
TEMPLE         CLOUDY    28  23  80 N21G28    30.34R WCI  15
KILLEEN-GRAY   CLOUDY    28  27  93 N23G29    30.35R WCI  14
FORT HOOD      CLOUDY    28  27  94 N21       30.35R WCI  15
GEORGETOWN     CLOUDY    30  27  86 N17G29    30.35R WCI  18
LAGO VISTA     CLOUDY    30  28  93 N18G30    30.30R WCI  18
SAN MARCOS     CLOUDY    34  28  80 N29G41    30.29R WCI  20
NEW BRAUNFELS  CLOUDY    36  32  85 N24G35    30.25R WCI  24
RANDOLPH AFB   CLOUDY    36  32  85 N24G37    30.26R WCI  24
SAN ANTONIO    CLOUDY    36  30  79 N25G32    30.26R WCI  24
STINSON        CLOUDY    38  32  79 N16G22    30.27R WCI  29
PLEASANTON     NOT AVBL
LA GRANGE      FLURRIES  36  34  93 N16G26    30.24R WCI  26
GIDDINGS       DRIZZLE   33  32  94 N17G25    30.30S WCI  23
$$

EAST TEXAS

CITY           SKY/WX    TMP DP  RH WIND       PRES   REMARKS
PARIS          CLOUDY    25  19  80 CALM      30.42R
CLARKSVILLE    NOT AVBL
TYLER          FLURRIES  30  27  88 N14G23    30.34R WCI  19
LONGVIEW       LGT SNOW  33  30  88 NW15G22   30.33R FOG     WCI  23
PALESTINE      LGT SNOW  32  31  97 N17G28    30.29F WCI  21
NACOGDOCHES    CLOUDY    36  30  80 N13       30.31R WCI  27
$$

TEXAS HILL COUNTRY AND EDWARDS PLATEAU

CITY           SKY/WX    TMP DP  RH WIND       PRES   REMARKS
LLANO          CLOUDY    30  27  86 CALM      30.42R
HORSESHOE BAY  CLOUDY    31  28  88 N15G23    30.36R WCI  20
KERRVILLE      MIX PCPN  29  26  89 N18G30    30.30R WCI  16
FREDERICKSBRG  CLOUDY    27  25  91 N18G25    30.31R WCI  14
ROCKSPRINGS    NOT AVBL
HONDO          CLOUDY    34  29  82 N26G32    30.31R WCI  21
UVALDE         CLOUDY    34  29  80 N20G26    30.33R WCI  23
DEL RIO        CLOUDY    35  26  69 NW17G29   30.40R WCI  25
$$

SOUTHEAST TEXAS

CITY           SKY/WX    TMP DP  RH WIND       PRES   REMARKS
COLLEGE STN    CLOUDY    34  32  92 N21G28    30.26R WCI  22
CALDWELL       LGT RAIN  32  32 100 N15G29    30.32R WCI  22
CROCKETT       CLOUDY    37  37 100 N14G22    30.27F WCI  29
BRENHAM        LGT RAIN  36  34  92 N29G35    30.22F WCI  23
HUNTSVILLE     LGT RAIN  36  34  92 N8G20     30.21F WCI  30
CONROE         CLOUDY    38  35  89 N12G21    30.21R WCI  30
HOUSTON BUSH   CLOUDY    41  38  89 N17       30.18S WCI  32
HOUSTON HOBBY  TSTM      41  37  87 N23G33    30.14S WCI  31
PERLAND        LGT RAIN  42  39  89 N20G37    30.16R WCI  33
WHARTON        CLOUDY    38  36  92 N22G30    30.17R WCI  27
$$

THE UPPER TEXAS COAST

CITY           SKY/WX    TMP DP  RH WIND       PRES   REMARKS
ORANGE         LGT RAIN  40  39  95 N20G31    30.13R WCI  31
PORT ARTHUR    LGT RAIN  41  37  86 N30G41    30.10F WCI  30
GALVESTON      LGT RAIN  45  42  89 N38G47    30.12R WCI  34
ANGLETON       LGT RAIN  39  39 100 N18G28    30.13R WCI  30
BAY CITY       CLOUDY    40  39  99 N22G31    30.12S WCI  29
$$

TEXAS COASTAL BEND, RIO GRANDE PLAINS DEEP SOUTH TEXAS

CITY           SKY/WX    TMP DP  RH WIND       PRES   REMARKS
VICTORIA       CLOUDY    38  35  89 N23G32    30.17R WCI  27
BEEVILLE       CLOUDY    39  36  87 N24G35    30.18R WCI  29
ROCKPORT       CLOUDY    41  36  82 N22G37    30.14R WCI  31
PORT ARANSAS   CLOUDY    41  38  92 N29G36    30.13R WCI  30
PORT LAVACA    CLOUDY    38  37  94 N26G35    30.14F WCI  27
CORPUS CHRISTI CLOUDY    41  37  86 N24G32    30.14R WCI  31
KINGSVILLE NAS CLOUDY    42  39  89 N23G30    30.17R WCI  33
COTULLA        CLOUDY    42  36  79 N16G23    30.28R WCI  34
LAREDO         LGT RAIN  43  39  87 NW22      30.27R WCI  34
BROWNSVILLE    LGT RAIN  46  43  89 N23G36    30.07R WCI  38
PORT ISABEL    LGT RAIN  47  45  93 N31G41    30.07R FOG     WCI  38
HEBBRONVILLE   LGT RAIN N/A N/A N/A N22G29    30.20R
MCALLEN        LGT RAIN  45  43  93 NW22G30   30.16R FOG     WCI  37
WESLACO        CLOUDY    44  40  88 N21G29    30.13R WCI  35
FALFURRIAS     CLOUDY    42  38  87 N16G22    30.17R WCI  34
EDINBURG       CLOUDY    45  42  89 N24G31    30.14R FOG     WCI  36
$$


USA.gov is the U.S. government's official web portal to all federal, state and local government web resources and services.